Tracking 28790 objects as of 19-Apr-2024
HD Live streaming from Space Station
objects crossing your sky now

THORAD AGENA D DEB

Track THORAD AGENA D DEB now!
10-day predictions


NORAD ID: 4759
Int'l Code: 1970-025DH
Perigee: 990.3 km
Apogee: 995.1 km
Inclination: 100.0 °
Period: 104.8 minutes
Semi major axis: 7363 km
RCS: 0.0458 m2 (small)
Launch date: April 8, 1970
Source: United States (US)
Launch site: AIR FORCE WESTERN TEST RANGE (AFWTR)

Note: This is SATELLITE DEBRIS
Your satellite tracking list
Your tracking list is empty




NASA's NSSDC Master Catalog

Two Line Element Set (TLE):
1 04759U 70025DH  24109.83731804  .00002020  00000-0  22058-2 0  9992
2 04759 100.0024  67.5085 0003272  90.3253 324.4527 13.73912034686438
Source of the keplerian elements: AFSPC